Location: Lake Almanor
(40.2485°N, 121.1442°W)
Time: 08:39:50
(UTC-08:00)

STARLINK-1080 - Pass Details

Date: 30 January 2020
Orbit: 348 x 351 km, 53.0° (Epoch: 18 February)

Event Time Altitude Azimuth Distance (km) Brightness Sun altitude
Rises 17:46:03 0° 319° (NW) 2,165 7.0 -5.4°
Reaches altitude 10° 17:48:37 10° 343° (NNW) 1,320 5.6 -5.9°
Maximum altitude 17:50:31 16° 24° (NNE) 1,036 4.7 -6.2°
Drops below altitude 10° 17:52:26 10° 65° (ENE) 1,317 4.9 -6.6°
Enters shadow 17:52:45 - 69° (ENE) 1,403 5.0 -6.6°
